FW3609 Weather Reports


time (UTC)temp
F
wind
direction
speed
knots
gust
knots
rain 1hr
in
rain 24hr
in
rain mn
in
humidity
%
barometer
mb
20260505111522 61 252 0.0 0.9 0.00 0.00 0.00 70 1013.7
20260505101503 59 209 0.0 0.9 0.00 0.00 0.00 73 1013.2
20260505100032 57 268 0.0 3.5 0.00 0.00 0.00 77 1013.2
20260505094556 54 286 0.0 0.9 0.00 0.00 0.00 83 1013.1
20260505093022 52 229 0.0 1.7 0.00 0.00 0.00 86 1013.0
20260505091617 52 338 0.0 0.0 0.00 0.00 0.00 87 1013.0
20260505090017 51 328 0.0 0.0 0.00 0.00 0.00 88 1012.9
20260505084602 51 328 0.0 0.0 0.00 0.00 0.00 88 1013.1
20260505083026 51 328 0.0 0.0 0.00 0.00 0.00 88 1013.1
20260505081556 51 328 0.0 0.0 0.00 0.00 0.00 88 1013.0
20260505080024 51 329 0.0 0.0 0.00 0.00 0.00 88 1012.9
20260505074542 51 266 0.0 0.0 0.00 0.00 0.00 88 1013.0
20260505073023 51 266 0.0 0.0 0.00 0.00 0.00 88 1012.9
20260505071547 52 266 0.0 0.0 0.00 0.00 0.00 87 1012.8
20260505070009 52 266 0.0 0.0 0.00 0.00 0.00 87 1012.7
20260505064539 53 266 0.0 0.0 0.00 0.00 0.00 86 1012.6
20260505063102 53 266 0.0 0.0 0.00 0.00 0.00 84 1012.6
20260505061529 54 266 0.0 0.0 0.00 0.00 0.00 83 1012.6
20260505060100 54 266 0.0 0.0 0.00 0.00 0.00 82 1012.6
20260505054518 55 266 0.0 0.0 0.00 0.00 0.00 81 1012.6
20260505053043 55 266 0.0 0.0 0.00 0.00 0.00 80 1012.7
20260505051511 56 266 0.0 0.0 0.00 0.00 0.00 78 1012.9
20260505041600 60 266 0.0 0.0 0.00 0.00 0.00 68 1012.7
20260505040021 62 266 0.0 0.0 0.00 0.00 0.00 65 1012.6
20260505034548 64 266 0.0 0.9 0.00 0.00 0.00 60 1012.5
20260505033019 66 269 0.0 0.9 0.00 0.00 0.00 57 1012.5
20260505031547 66 245 0.0 1.7 0.00 0.00 0.00 56 1012.4
20260505030012 66 228 0.0 0.9 0.00 0.00 0.00 55 1012.4
20260505024549 67 156 0.0 0.9 0.00 0.00 0.00 54 1012.4
20260505023014 66 243 0.0 0.9 0.00 0.00 0.00 55 1012.5
20260505021545 66 338 0.0 0.0 0.00 0.00 0.00 56 1012.5
20260505020014 66 333 0.0 0.0 0.00 0.00 0.00 55 1012.4
20260505014602 67 339 0.0 0.0 0.00 0.00 0.00 54 1012.2
20260505013008 67 160 0.0 0.0 0.00 0.00 0.00 54 1012.0
20260505011541 68 160 0.0 0.0 0.00 0.00 0.00 52 1012.0
20260505010003 69 160 0.0 0.0 0.00 0.00 0.00 51 1011.9
20260505004545 70 160 0.0 0.0 0.00 0.00 0.00 48 1011.7
20260505003002 72 160 0.0 0.0 0.00 0.00 0.00 46 1011.6
20260505001529 72 166 0.0 0.9 0.00 0.00 0.00 45 1011.6
20260504234527 72 219 0.0 1.7 0.00 0.00 0.00 43 1011.5
20260504233058 73 156 0.0 2.6 0.00 0.00 0.00 42 1011.4
20260504231526 75 176 0.0 3.5 0.00 0.00 0.00 40 1011.4
20260504230059 75 174 0.9 6.1 0.00 0.00 0.00 40 1011.4
20260504224523 75 200 0.9 4.3 0.00 0.00 0.00 39 1011.4
20260504223102 77 228 0.9 5.2 0.00 0.00 0.00 37 1011.3
20260504221514 77 276 0.9 9.6 0.00 0.00 0.00 38 1011.3
20260504220042 77 209 0.9 8.7 0.00 0.00 0.00 37 1011.3
20260504214507 77 267 1.7 7.0 0.00 0.00 0.00 36 1011.3
20260504213033 76 190 1.7 7.8 0.00 0.00 0.00 37 1011.3
20260504211652 76 155 1.7 8.7 0.00 0.00 0.00 36 1011.2
20260504210028 77 193 0.9 8.7 0.00 0.00 0.00 36 1011.2
20260504204556 78 238 0.9 6.1 0.00 0.00 0.00 36 1011.3
20260504203021 78 255 0.9 7.8 0.00 0.00 0.00 35 1011.5
20260504201654 77 135 0.9 8.7 0.00 0.00 0.00 37 1011.9
20260504200023 77 286 0.9 4.3 0.00 0.00 0.00 36 1012.0
20260504194555 76 276 0.0 7.0 0.00 0.00 0.00 37 1012.1
20260504193014 76 250 0.9 5.2 0.00 0.00 0.00 38 1012.5
20260504191556 76 255 0.9 7.0 0.00 0.00 0.00 39 1012.8
20260504190007 75 209 0.0 9.6 0.00 0.00 0.00 39 1012.9
20260504184545 76 73 1.7 5.2 0.00 0.00 0.00 38 1013.2
20260504183100 75 200 0.9 6.1 0.00 0.00 0.00 40 1013.4
20260504181521 74 300 1.7 6.1 0.00 0.00 0.00 40 1013.5
20260504180049 74 153 0.9 6.1 0.00 0.00 0.00 40 1013.9
20260504174514 74 143 0.9 4.3 0.00 0.00 0.00 38 1014.0
20260504173045 73 189 2.6 8.7 0.00 0.00 0.00 38 1014.0
20260504171602 72 97 2.6 6.1 0.00 0.00 0.00 37 1014.2